KUIPER-00503

导读 | 豆包AI

KUIPER-00503(NORAD编号68884)是亚马逊Kuiper(现更名Leo)低轨卫星互联网星座的组成卫星,隶属于该星座一期组网卫星群。该星座旨在为全球网络覆盖不足地区提供高速低延迟卫星互联网服务,一期规划3232颗卫星,分布于590-630公里近地轨道。作为星座部署过程中发射的卫星之一,KUIPER-00503承担着验证低轨宽带通信技术,推进全球覆盖组网的任务,助力亚马逊实现太空互联网布局,目前该星座已进入加速发射阶段,朝着2026年7月完成一半部署的目标推进。

基本信息
目录编号:
68884
目录名称:
KUIPER-00503
国际标识:
2026-095W
轨道中心:
EARTH
卫星名称:
KUIPER-00503
卫星全名:
KUIPER-00503
卫星状态:
在轨 (已飞行27 天)
发射日期:
2026-04-28 UTC
国别 :
美国 (US)
星等 :
--
轨道信息
数据来源 国际轨道数据
星历时间: 2026-05-24T12:00:02+0800
1天前
查看轨道信息
半长轴: 6855.441km
偏心率: 0.0007152
轨道倾角: 51.882°
近地点辐角 208.927°
升交点赤经 358.816°
平近点角 25.501°
近地点: 472.4km
远地点: 482.208km
周期: 94.148分钟
每日圈数: 15.295007
详细信息
使用方式:
暂无
2D轨道图
3D轨道图
轨道高度分析图
轨道倾角分析图
轨道综合分析图
查看轨道综合分析图